| time (UTC) | temp C | wind direction | speed KPH | gust KPH | rain 1hr cm | rain 24hr cm | rain mn cm | humidity % | barometer mb |
| 20260505071503 | 12 | 162 | 8.0 | 19.3 | 0.00 | 0.13 | 0.05 | 94 | 1001.8 |
| 20260505071003 | 12 | 164 | 9.7 | 20.9 | 0.00 | 0.13 | 0.05 | 93 | 1001.7 |
| 20260505070503 | 12 | 164 | 11.3 | 20.9 | 0.00 | 0.13 | 0.05 | 93 | 1002.0 |
| 20260505070003 | 12 | 169 | 9.7 | 20.9 | 0.00 | 0.13 | 0.05 | 93 | 1002.0 |
| 20260505065505 | 12 | 171 | 8.0 | 20.9 | 0.00 | 0.13 | 0.05 | 93 | 1002.2 |
| 20260505065004 | 12 | 176 | 8.0 | 24.1 | 0.03 | 0.13 | 0.05 | 93 | 1002.1 |
| 20260505064715 | 12 | 185 | 8.0 | 24.1 | 0.03 | 0.13 | 0.05 | 93 | 1002.2 |
| 20260505064003 | 12 | 233 | 11.3 | 29.0 | 0.05 | 0.13 | 0.05 | 93 | 1002.6 |
| 20260505063503 | 13 | 249 | 12.9 | 29.0 | 0.05 | 0.13 | 0.05 | 93 | 1003.0 |
| 20260505063003 | 13 | 242 | 11.3 | 29.0 | 0.05 | 0.13 | 0.05 | 92 | 1003.9 |
| 20260505062503 | 13 | 238 | 9.7 | 24.1 | 0.05 | 0.13 | 0.05 | 92 | 1002.9 |
| 20260505062003 | 12 | 243 | 9.7 | 24.1 | 0.05 | 0.13 | 0.05 | 91 | 1003.0 |
| 20260505061503 | 13 | 237 | 9.7 | 20.9 | 0.05 | 0.13 | 0.05 | 91 | 1003.1 |
| 20260505061003 | 13 | 220 | 11.3 | 20.9 | 0.05 | 0.13 | 0.05 | 90 | 1002.8 |
| 20260505060715 | 13 | 217 | 11.3 | 20.9 | 0.05 | 0.13 | 0.05 | 90 | 1003.1 |
| 20260505060003 | 13 | 220 | 16.1 | 35.4 | 0.05 | 0.13 | 0.05 | 89 | 1002.9 |
| 20260505055713 | 13 | 221 | 17.7 | 37.0 | 0.05 | 0.13 | 0.05 | 88 | 1003.2 |
| 20260505055003 | 13 | 225 | 22.5 | 51.5 | 0.03 | 0.08 | 0.03 | 84 | 1003.3 |
| 20260505054503 | 14 | 226 | 29.0 | 59.5 | 0.00 | 0.05 | 0.00 | 81 | 1003.4 |
| 20260505054005 | 15 | 225 | 29.0 | 59.5 | 0.00 | 0.05 | 0.00 | 78 | 1003.5 |
| 20260505053715 | 15 | 224 | 25.7 | 56.3 | 0.00 | 0.05 | 0.00 | 78 | 1003.3 |
| 20260505053003 | 15 | 223 | 16.1 | 43.5 | 0.00 | 0.05 | 0.00 | 77 | 1003.1 |
| 20260505052503 | 15 | 226 | 16.1 | 38.6 | 0.00 | 0.05 | 0.00 | 77 | 1002.9 |
| 20260505052003 | 15 | 232 | 17.7 | 41.8 | 0.00 | 0.05 | 0.00 | 76 | 1002.9 |
| 20260505051713 | 16 | 232 | 19.3 | 46.7 | 0.00 | 0.05 | 0.00 | 75 | 1002.7 |
| 20260505051003 | 16 | 222 | 22.5 | 51.5 | 0.00 | 0.05 | 0.00 | 71 | 1002.9 |
| 20260505050503 | 16 | 229 | 25.7 | 59.5 | 0.00 | 0.05 | 0.00 | 70 | 1003.1 |
| 20260505041506 | 17 | 217 | 16.1 | 45.1 | 0.00 | 0.05 | 0.00 | 74 | 1002.6 |
| 20260505041003 | 17 | 210 | 20.9 | 45.1 | 0.00 | 0.05 | 0.00 | 72 | 1002.5 |
| 20260505040504 | 17 | 207 | 20.9 | 51.5 | 0.00 | 0.05 | 0.00 | 69 | 1002.4 |
| 20260505040004 | 17 | 205 | 17.7 | 51.5 | 0.00 | 0.05 | 0.00 | 69 | 1002.5 |
| 20260505035505 | 17 | 201 | 14.5 | 30.6 | 0.00 | 0.05 | 0.05 | 69 | 1002.6 |
| 20260505035003 | 17 | 195 | 11.3 | 29.0 | 0.00 | 0.05 | 0.05 | 70 | 1002.4 |
| 20260505034503 | 17 | 192 | 9.7 | 24.1 | 0.00 | 0.05 | 0.05 | 70 | 1002.3 |
| 20260505034003 | 17 | 194 | 9.7 | 24.1 | 0.00 | 0.05 | 0.05 | 71 | 1002.3 |
| 20260505033503 | 16 | 188 | 9.7 | 20.9 | 0.00 | 0.05 | 0.05 | 71 | 1002.2 |
| 20260505033003 | 16 | 185 | 8.0 | 20.9 | 0.03 | 0.05 | 0.05 | 71 | 1002.3 |
| 20260505032503 | 16 | 190 | 8.0 | 16.1 | 0.03 | 0.05 | 0.05 | 71 | 1002.4 |
| 20260505032003 | 16 | 206 | 6.4 | 16.1 | 0.03 | 0.05 | 0.05 | 71 | 1002.4 |
| 20260505031714 | 16 | 206 | 6.4 | 16.1 | 0.03 | 0.05 | 0.05 | 71 | 1002.6 |
| 20260505031005 | 16 | 189 | 4.8 | 19.3 | 0.05 | 0.05 | 0.05 | 71 | 1002.6 |
| 20260505030714 | 16 | 194 | 4.8 | 19.3 | 0.05 | 0.05 | 0.05 | 71 | 1002.7 |
| 20260505030003 | 15 | 208 | 4.8 | 12.9 | 0.05 | 0.05 | 0.05 | 70 | 1002.8 |
| 20260505025503 | 15 | 218 | 4.8 | 19.3 | 0.05 | 0.05 | 0.05 | 70 | 1002.8 |
| 20260505025004 | 15 | 221 | 6.4 | 20.9 | 0.05 | 0.05 | 0.05 | 70 | 1002.9 |
| 20260505024503 | 15 | 216 | 8.0 | 22.5 | 0.05 | 0.05 | 0.05 | 70 | 1003.0 |
| 20260505024003 | 15 | 202 | 8.0 | 27.4 | 0.05 | 0.05 | 0.05 | 69 | 1003.0 |
| 20260505023505 | 15 | 194 | 9.7 | 27.4 | 0.05 | 0.05 | 0.05 | 70 | 1002.9 |
| 20260505023005 | 15 | 193 | 9.7 | 22.5 | 0.03 | 0.03 | 0.03 | 71 | 1002.9 |
| 20260505022503 | 15 | 179 | 12.9 | 32.2 | 0.03 | 0.03 | 0.03 | 70 | 1002.9 |
| 20260505022003 | 15 | 187 | 17.7 | 45.1 | 0.03 | 0.03 | 0.03 | 69 | 1002.8 |
| 20260505021503 | 16 | 202 | 12.9 | 45.1 | 0.03 | 0.03 | 0.03 | 66 | 1003.0 |
| 20260505021003 | 15 | 194 | 6.4 | 43.5 | 0.00 | 0.00 | 0.00 | 62 | 1003.7 |
| 20260505020503 | 15 | 168 | 6.4 | 12.9 | 0.00 | 0.00 | 0.00 | 58 | 1003.4 |
| 20260505020003 | 15 | 166 | 6.4 | 14.5 | 0.00 | 0.00 | 0.00 | 56 | 1003.0 |
| 20260505015504 | 15 | 171 | 6.4 | 14.5 | 0.00 | 0.00 | 0.00 | 56 | 1002.7 |
| 20260505015004 | 15 | 177 | 6.4 | 14.5 | 0.00 | 0.00 | 0.00 | 56 | 1002.8 |
| 20260505014503 | 15 | 180 | 6.4 | 14.5 | 0.00 | 0.00 | 0.00 | 56 | 1002.8 |
| 20260505014005 | 15 | 181 | 4.8 | 12.9 | 0.00 | 0.00 | 0.00 | 56 | 1002.8 |
| 20260505013503 | 15 | 174 | 4.8 | 9.7 | 0.00 | 0.00 | 0.00 | 56 | 1002.7 |
| 20260505013004 | 15 | 170 | 6.4 | 19.3 | 0.00 | 0.00 | 0.00 | 57 | 1002.7 |
| 20260505012504 | 15 | 172 | 8.0 | 19.3 | 0.00 | 0.00 | 0.00 | 56 | 1002.9 |
| 20260505012003 | 15 | 188 | 6.4 | 14.5 | 0.00 | 0.00 | 0.00 | 57 | 1003.0 |
| 20260505011503 | 15 | 192 | 6.4 | 12.9 | 0.00 | 0.00 | 0.00 | 57 | 1003.1 |
| 20260505011003 | 15 | 179 | 6.4 | 16.1 | 0.00 | 0.00 | 0.00 | 56 | 1003.0 |
| 20260505010503 | 15 | 193 | 8.0 | 16.1 | 0.00 | 0.00 | 0.00 | 56 | 1002.9 |
| 20260505010003 | 15 | 184 | 8.0 | 20.9 | 0.00 | 0.00 | 0.00 | 57 | 1002.9 |
| 20260505005505 | 16 | 167 | 8.0 | 19.3 | 0.00 | 0.00 | 0.00 | 56 | 1002.8 |
| 20260505005004 | 16 | 179 | 8.0 | 14.5 | 0.00 | 0.00 | 0.00 | 55 | 1002.9 |
| 20260505004715 | 16 | 180 | 8.0 | 12.9 | 0.00 | 0.00 | 0.00 | 54 | 1002.9 |
| 20260505004003 | 16 | 177 | 8.0 | 20.9 | 0.00 | 0.00 | 0.00 | 53 | 1002.9 |
| 20260505003503 | 17 | 195 | 6.4 | 19.3 | 0.00 | 0.00 | 0.00 | 52 | 1003.0 |
| 20260505003003 | 17 | 190 | 6.4 | 14.5 | 0.00 | 0.00 | 0.00 | 52 | 1003.0 |
| 20260505002503 | 17 | 171 | 8.0 | 14.5 | 0.00 | 0.00 | 0.00 | 50 | 1003.0 |
| 20260505002003 | 18 | 180 | 8.0 | 14.5 | 0.00 | 0.00 | 0.00 | 48 | 1003.0 |
| 20260505001715 | 18 | 186 | 6.4 | 14.5 | 0.00 | 0.00 | 0.00 | 47 | 1003.0 |
| 20260505001214 | 18 | 198 | 4.8 | 12.9 | 0.00 | 0.00 | 0.00 | 47 | 1002.9 |
| 20260505000503 | 19 | 192 | 6.4 | 12.9 | 0.00 | 0.00 | 0.00 | 46 | 1003.0 |
| 20260505000005 | 19 | 183 | 8.0 | 14.5 | 0.00 | 0.00 | 0.00 | 45 | 1003.0 |
| 20260504235503 | 20 | 186 | 8.0 | 14.5 | 0.00 | 0.00 | 0.00 | 45 | 1002.9 |
| 20260504235006 | 20 | 214 | 9.7 | 24.1 | 0.00 | 0.00 | 0.00 | 44 | 1003.0 |
| 20260504234504 | 20 | 224 | 11.3 | 24.1 | 0.00 | 0.00 | 0.00 | 41 | 1003.0 |
| 20260504234003 | 20 | 223 | 9.7 | 20.9 | 0.00 | 0.00 | 0.00 | 41 | 1003.0 |
| 20260504233503 | 20 | 225 | 11.3 | 30.6 | 0.00 | 0.00 | 0.00 | 41 | 1002.9 |
| 20260504233003 | 20 | 236 | 14.5 | 32.2 | 0.00 | 0.00 | 0.00 | 41 | 1002.9 |
| 20260504232503 | 20 | 237 | 16.1 | 35.4 | 0.00 | 0.00 | 0.00 | 40 | 1003.0 |
| 20260504232003 | 21 | 235 | 17.7 | 37.0 | 0.00 | 0.00 | 0.00 | 41 | 1003.0 |
| 20260504231503 | 21 | 237 | 17.7 | 38.6 | 0.00 | 0.00 | 0.00 | 42 | 1003.0 |
| 20260504231213 | 21 | 237 | 17.7 | 38.6 | 0.00 | 0.00 | 0.00 | 43 | 1003.1 |
| 20260504230503 | 21 | 241 | 14.5 | 32.2 | 0.00 | 0.00 | 0.00 | 44 | 1003.0 |
| 20260504230005 | 20 | 237 | 16.1 | 32.2 | 0.00 | 0.00 | 0.00 | 44 | 1003.2 |
| 20260504225506 | 20 | 233 | 16.1 | 32.2 | 0.00 | 0.00 | 0.00 | 44 | 1003.2 |
| 20260504225004 | 20 | 233 | 16.1 | 29.0 | 0.00 | 0.00 | 0.00 | 43 | 1003.2 |
| 20260504224503 | 20 | 236 | 14.5 | 30.6 | 0.00 | 0.00 | 0.00 | 44 | 1003.3 |
| 20260504224215 | 20 | 239 | 14.5 | 30.6 | 0.00 | 0.00 | 0.00 | 44 | 1003.2 |
| 20260504223503 | 21 | 244 | 16.1 | 32.2 | 0.00 | 0.00 | 0.00 | 43 | 1003.1 |
| 20260504223215 | 21 | 244 | 17.7 | 32.2 | 0.00 | 0.00 | 0.00 | 42 | 1003.2 |
| 20260504222505 | 21 | 237 | 16.1 | 35.4 | 0.00 | 0.00 | 0.00 | 42 | 1003.1 |
| 20260504222003 | 21 | 238 | 14.5 | 35.4 | 0.00 | 0.00 | 0.00 | 41 | 1003.2 |
| 20260504221503 | 21 | 233 | 19.3 | 41.8 | 0.00 | 0.00 | 0.00 | 40 | 1003.1 |
| 20260504221003 | 21 | 229 | 19.3 | 41.8 | 0.00 | 0.00 | 0.00 | 39 | 1003.2 |
| 20260504220712 | 21 | 227 | 17.7 | 38.6 | 0.00 | 0.00 | 0.00 | 38 | 1003.1 |
| 20260504220003 | 21 | 234 | 17.7 | 30.6 | 0.00 | 0.00 | 0.00 | 36 | 1003.0 |
| 20260504215505 | 21 | 236 | 19.3 | 32.2 | 0.00 | 0.00 | 0.00 | 36 | 1003.0 |
| 20260504215003 | 21 | 235 | 19.3 | 38.6 | 0.00 | 0.00 | 0.00 | 35 | 1003.0 |
| 20260504214714 | 21 | 231 | 20.9 | 38.6 | 0.00 | 0.00 | 0.00 | 36 | 1003.0 |
| 20260504214003 | 21 | 229 | 24.1 | 49.9 | 0.00 | 0.00 | 0.00 | 36 | 1003.0 |
| 20260504213504 | 21 | 235 | 20.9 | 49.9 | 0.00 | 0.00 | 0.00 | 36 | 1003.2 |
| 20260504213003 | 22 | 242 | 19.3 | 43.5 | 0.00 | 0.00 | 0.00 | 36 | 1003.0 |
| 20260504212503 | 22 | 238 | 19.3 | 43.5 | 0.00 | 0.00 | 0.00 | 36 | 1003.1 |
| 20260504212003 | 21 | 235 | 17.7 | 35.4 | 0.00 | 0.00 | 0.00 | 36 | 1002.9 |
| 20260504211504 | 21 | 228 | 17.7 | 37.0 | 0.00 | 0.00 | 0.00 | 40 | 1003.1 |
| 20260504211003 | 21 | 219 | 16.1 | 37.0 | 0.00 | 0.00 | 0.00 | 41 | 1003.2 |
| 20260504210714 | 21 | 218 | 14.5 | 32.2 | 0.00 | 0.00 | 0.00 | 42 | 1003.3 |
| 20260504210005 | 21 | 229 | 16.1 | 32.2 | 0.00 | 0.00 | 0.00 | 43 | 1003.3 |
| 20260504205503 | 21 | 222 | 17.7 | 41.8 | 0.00 | 0.00 | 0.00 | 42 | 1003.3 |
| 20260504205005 | 21 | 221 | 20.9 | 41.8 | 0.00 | 0.00 | 0.00 | 43 | 1003.3 |
| 20260504204507 | 21 | 227 | 22.5 | 38.6 | 0.00 | 0.00 | 0.00 | 43 | 1003.5 |
| 20260504204003 | 21 | 232 | 19.3 | 38.6 | 0.00 | 0.00 | 0.00 | 42 | 1003.7 |
| 20260504203503 | 21 | 231 | 16.1 | 32.2 | 0.00 | 0.00 | 0.00 | 43 | 1003.6 |
| 20260504203003 | 21 | 218 | 17.7 | 45.1 | 0.00 | 0.00 | 0.00 | 44 | 1003.5 |
| 20260504202503 | 21 | 217 | 20.9 | 45.1 | 0.00 | 0.00 | 0.00 | 43 | 1003.5 |
| 20260504202214 | 21 | 222 | 19.3 | 45.1 | 0.00 | 0.00 | 0.00 | 43 | 1003.7 |
| 20260504201713 | 21 | 230 | 17.7 | 41.8 | 0.00 | 0.00 | 0.00 | 43 | 1003.7 |
| 20260504201003 | 21 | 228 | 16.1 | 37.0 | 0.00 | 0.00 | 0.00 | 43 | 1003.7 |
| 20260504200503 | 21 | 227 | 16.1 | 37.0 | 0.00 | 0.00 | 0.00 | 44 | 1003.8 |
| 20260504200003 | 21 | 227 | 16.1 | 35.4 | 0.00 | 0.00 | 0.00 | 43 | 1003.8 |
| 20260504195713 | 21 | 227 | 17.7 | 37.0 | 0.00 | 0.00 | 0.00 | 44 | 1004.0 |
| 20260504195214 | 21 | 223 | 17.7 | 37.0 | 0.00 | 0.00 | 0.00 | 45 | 1004.0 |
| 20260504194505 | 21 | 213 | 16.1 | 38.6 | 0.00 | 0.00 | 0.00 | 43 | 1004.0 |
| 20260504194214 | 21 | 213 | 17.7 | 38.6 | 0.00 | 0.00 | 0.00 | 46 | 1004.1 |
| 20260504193503 | 21 | 220 | 17.7 | 38.6 | 0.00 | 0.00 | 0.00 | 45 | 1004.3 |
| 20260504193006 | 21 | 221 | 17.7 | 35.4 | 0.00 | 0.00 | 0.00 | 46 | 1004.4 |
| 20260504192503 | 21 | 229 | 16.1 | 35.4 | 0.00 | 0.00 | 0.00 | 45 | 1004.3 |
| 20260504192005 | 21 | 231 | 19.3 | 46.7 | 0.00 | 0.00 | 0.00 | 46 | 1004.6 |
| 20260504191503 | 21 | 230 | 20.9 | 46.7 | 0.00 | 0.00 | 0.00 | 45 | 1004.6 |
| 20260504191214 | 21 | 230 | 20.9 | 46.7 | 0.00 | 0.00 | 0.00 | 46 | 1004.7 |
| 20260504190503 | 21 | 236 | 19.3 | 38.6 | 0.00 | 0.00 | 0.00 | 45 | 1004.7 |
| 20260504190003 | 20 | 232 | 24.1 | 38.6 | 0.00 | 0.00 | 0.00 | 45 | 1004.9 |
| 20260504185504 | 20 | 233 | 24.1 | 53.1 | 0.00 | 0.00 | 0.00 | 47 | 1004.8 |
| 20260504185003 | 20 | 229 | 24.1 | 53.1 | 0.00 | 0.00 | 0.00 | 46 | 1004.9 |
| 20260504184505 | 20 | 229 | 22.5 | 45.1 | 0.00 | 0.00 | 0.00 | 45 | 1004.8 |
| 20260504184003 | 20 | 232 | 20.9 | 43.5 | 0.00 | 0.00 | 0.00 | 46 | 1005.0 |
| 20260504183503 | 20 | 228 | 19.3 | 41.8 | 0.00 | 0.00 | 0.00 | 47 | 1005.1 |
| 20260504183004 | 20 | 228 | 20.9 | 43.5 | 0.00 | 0.00 | 0.00 | 46 | 1005.0 |
| 20260504182713 | 20 | 224 | 19.3 | 43.5 | 0.00 | 0.00 | 0.00 | 48 | 1005.1 |
| 20260504182214 | 20 | 223 | 17.7 | 43.5 | 0.00 | 0.00 | 0.00 | 48 | 1005.2 |
| 20260504181503 | 20 | 227 | 20.9 | 38.6 | 0.00 | 0.00 | 0.00 | 50 | 1005.2 |
| 20260504181003 | 20 | 231 | 22.5 | 46.7 | 0.00 | 0.00 | 0.00 | 50 | 1005.2 |
| 20260504180712 | 20 | 234 | 24.1 | 46.7 | 0.00 | 0.00 | 0.00 | 48 | 1005.4 |
| 20260504180003 | 20 | 233 | 20.9 | 41.8 | 0.00 | 0.00 | 0.00 | 48 | 1005.5 |
| 20260504175505 | 20 | 231 | 16.1 | 41.8 | 0.00 | 0.00 | 0.00 | 50 | 1005.6 |
| 20260504175003 | 20 | 243 | 17.7 | 37.0 | 0.00 | 0.00 | 0.00 | 50 | 1005.6 |
| 20260504174503 | 19 | 245 | 19.3 | 43.5 | 0.00 | 0.00 | 0.00 | 50 | 1005.7 |
| 20260504174003 | 19 | 244 | 19.3 | 43.5 | 0.00 | 0.00 | 0.00 | 50 | 1005.7 |
| 20260504173505 | 19 | 241 | 20.9 | 38.6 | 0.00 | 0.00 | 0.00 | 51 | 1005.7 |
| 20260504173003 | 18 | 242 | 22.5 | 46.7 | 0.00 | 0.00 | 0.00 | 51 | 1005.7 |
| 20260504172504 | 18 | 239 | 20.9 | 45.1 | 0.00 | 0.00 | 0.00 | 51 | 1005.8 |
| 20260504172005 | 18 | 234 | 19.3 | 43.5 | 0.00 | 0.00 | 0.00 | 52 | 1005.9 |
| 20260504171505 | 18 | 230 | 22.5 | 51.5 | 0.00 | 0.00 | 0.00 | 53 | 1005.8 |
| 20260504171003 | 18 | 227 | 24.1 | 51.5 | 0.00 | 0.00 | 0.00 | 53 | 1005.8 |
| 20260504170714 | 18 | 230 | 25.7 | 51.5 | 0.00 | 0.00 | 0.00 | 52 | 1005.9 |
| 20260504150503 | 16 | 227 | 24.1 | 64.4 | 0.00 | 0.00 | 0.00 | 54 | 1006.8 |
| 20260504141003 | 15 | 226 | 27.4 | 59.5 | 0.00 | 0.00 | 0.00 | 55 | 1006.4 |
| 20260504140505 | 15 | 224 | 27.4 | 53.1 | 0.00 | 0.00 | 0.00 | 54 | 1006.5 |
| 20260504130503 | 14 | 219 | 22.5 | 49.9 | 0.00 | 0.00 | 0.00 | 56 | 1006.8 |
| 20260504110503 | 10 | 203 | 9.7 | 19.3 | 0.00 | 0.00 | 0.00 | 64 | 1007.1 |
| 20260504100503 | 10 | 207 | 9.7 | 22.5 | 0.00 | 0.00 | 0.00 | 63 | 1006.8 |
| 20260504082003 | 10 | 195 | 6.4 | 16.1 | 0.00 | 0.00 | 0.00 | 65 | 1007.7 |
| 20260504081503 | 9 | 203 | 8.0 | 16.1 | 0.00 | 0.00 | 0.00 | 67 | 1007.8 |
| 20260504081005 | 9 | 215 | 8.0 | 16.1 | 0.00 | 0.00 | 0.00 | 68 | 1007.8 |
| 20260504080503 | 8 | 220 | 8.0 | 16.1 | 0.00 | 0.00 | 0.00 | 70 | 1007.8 |